Terminal Aerodrome Forecast
Issued by NWS

Home | Current Version | Previous Version | Text Only | Print | Product List | Glossary On
Versions: 1 2 3 4 5 6 7 8 9 10 11 12
317
FTUS44 KSJT 111732
TAFBBD
TAF
KBBD 111732Z 1118/1218 24007KT P6SM SKC
     FM112300 32005KT P6SM SKC
      AMD NOT SKED=

USA.gov is the U.S. government's official web portal to all federal, state and local government web resources and services.